Location: Izdebno
(52.6670°N, 16.2170°E)
Time: 02:59:34
(UTC+02:00)

Transit 2A - Pass Details

Date: 23 February 2024
Orbit: 596 x 956 km, 66.7° (Epoch: 21 April)

Event Time Altitude Azimuth Distance (km) Brightness Sun altitude
Rises 20:14:54 0° 207° (SSW) 2,854 9.1 -26.6°
Enters shadow 20:16:21 - 205° (SSW) 2,267 8.5 -26.8°
Reaches altitude 10° 20:17:10 10° 203° (SSW) 1,938 - -27.0°
Maximum altitude 20:21:25 60° 124° (ESE) 686 - -27.6°
Drops below altitude 10° 20:25:43 10° 45° (NE) 1,968 - -28.2°
Sets 20:28:02 0° 42° (NE) 2,902 - -28.5°
